Regional Weather Roundup
Issued by NWS Goodland, KS

Home | Current Version | Previous Version | Graphics & Text | Print | Product List | Glossary On
Versions: 1 2 3 4 5 6 7 8 9 10 11 12 13 14 15 16 17 18 19 20 21 22 23 24 25 26 27 28 29 30 31 32 33 34 35 36 37 38 39 40 41 42 43 44 45 46 47 48 49 50
890
ASUS43 KGLD 250408
RWRGLD

GOODLAND FORECAST AREA HOURLY WEATHER ROUNDUP
NATIONAL WEATHER SERVICE GOODLAND KS
1000 PM MDT SAT SEP 24 2016

...OFFICIAL OBSERVATIONS...

CITY           SKY/WX    TMP DP  RH WIND       PRES   REMARKS
GOODLAND KS    CLOUDY    55  40  56 CALM      30.09R
HILL CITY KS   CLOUDY    55  52  89 CALM      30.02R
IMPERIAL NEB   CLOUDY    58  40  51 NW14      30.15R
MCCOOK NEB     CLEAR     56  43  61 NW9       30.05R HAZE
AKRON CO       CLOUDY    50  37  61 N12       30.23R
BURLINGTON CO  CLOUDY    57  44  62 NW6       30.14R
LIMON CO       CLOUDY    53  35  50 N22G31    30.24R
$$

...UNOFFICIAL OBSERVATIONS...

CITY           SKY/WX    TMP DP  RH WIND       PRES   REMARKS
COLBY KS       CLEAR     52  45  76 CALM      30.09R
LENORA KS        N/A     64  32  30 MISG        N/A
NORTON KS      CLEAR     55  41  58 CALM      30.02R
SHARON SPRINGS   N/A     55  41  60 CALM        N/A
TRIBUNE KS     CLEAR     57  45  62 CALM      30.09R
KIT CARSON CO    N/A     55  41  60 MISG        N/A
$$




USA.gov is the U.S. government's official web portal to all federal, state and local government web resources and services.